| time (UTC) | temp F | wind direction | speed MPH | gust MPH | rain 1hr in | rain 24hr in | rain mn in | humidity % | barometer mb |
| 20260902043026 | 81 | 139 | 7.0 | 13.0 | 0.00 | 0.00 | 0.00 | 53 | 1008.6 |
| 20260902041525 | 81 | 105 | 9.0 | 13.0 | 0.00 | 0.00 | 0.00 | 51 | 1008.4 |
| 20260902040022 | 81 | 136 | 7.0 | 15.0 | 0.00 | 0.00 | 0.00 | 51 | 1008.3 |
| 20260902034521 | 82 | 131 | 5.0 | 13.0 | 0.00 | 0.00 | 0.00 | 50 | 1008.2 |
| 20260902033021 | 82 | 139 | 5.0 | 11.0 | 0.00 | 0.00 | 0.00 | 50 | 1008.0 |
| 20260902031522 | 82 | 136 | 7.0 | 12.0 | 0.00 | 0.00 | 0.00 | 49 | 1007.8 |
| 20260902030019 | 82 | 122 | 8.0 | 14.0 | 0.00 | 0.00 | 0.00 | 49 | 1007.7 |
| 20260902024522 | 83 | 124 | 5.0 | 11.0 | 0.00 | 0.00 | 0.00 | 47 | 1007.6 |
| 20260902023022 | 83 | 124 | 7.0 | 13.0 | 0.00 | 0.00 | 0.00 | 45 | 1007.5 |
| 20260902021531 | 83 | 125 | 11.0 | 15.0 | 0.00 | 0.00 | 0.00 | 45 | 1007.3 |
| 20260902020016 | 84 | 172 | 11.0 | 18.0 | 0.00 | 0.00 | 0.00 | 44 | 1007.2 |
| 20260902014524 | 85 | 152 | 11.0 | 17.0 | 0.00 | 0.00 | 0.00 | 43 | 1007.1 |
| 20260902013015 | 85 | 142 | 9.0 | 19.0 | 0.00 | 0.00 | 0.00 | 42 | 1007.3 |
| 20260902011514 | 88 | 153 | 10.0 | 19.0 | 0.00 | 0.00 | 0.00 | 40 | 1007.3 |
| 20260902010023 | 88 | 179 | 12.0 | 21.0 | 0.00 | 0.00 | 0.00 | 40 | 1007.5 |
| 20260902004515 | 89 | 178 | 11.0 | 24.0 | 0.00 | 0.00 | 0.00 | 38 | 1007.5 |
| 20260902003012 | 89 | 148 | 13.0 | 24.0 | 0.00 | 0.00 | 0.00 | 39 | 1007.6 |
| 20260902001510 | 90 | 149 | 14.0 | 21.0 | 0.00 | 0.00 | 0.00 | 38 | 1007.7 |
| 20260902000011 | 90 | 147 | 10.0 | 19.0 | 0.00 | 0.00 | 0.00 | 37 | 1007.9 |
| 20260901234510 | 90 | 149 | 11.0 | 22.0 | 0.00 | 0.00 | 0.00 | 37 | 1007.8 |
| 20260901233011 | 90 | 139 | 15.0 | 27.0 | 0.00 | 0.00 | 0.00 | 37 | 1008.1 |
| 20260901231507 | 90 | 158 | 15.0 | 24.0 | 0.00 | 0.00 | 0.00 | 36 | 1008.4 |
| 20260901230004 | 90 | 162 | 16.0 | 27.0 | 0.00 | 0.00 | 0.00 | 36 | 1008.3 |
| 20260901224504 | 90 | 200 | 15.0 | 24.0 | 0.00 | 0.00 | 0.00 | 35 | 1008.3 |
| 20260901223004 | 91 | 188 | 14.0 | 25.0 | 0.00 | 0.00 | 0.00 | 33 | 1008.4 |
| 20260901221501 | 90 | 141 | 11.0 | 24.0 | 0.00 | 0.00 | 0.00 | 35 | 1008.5 |
| 20260901220002 | 90 | 191 | 14.0 | 24.0 | 0.00 | 0.00 | 0.00 | 34 | 1008.7 |
| 20260901214608 | 91 | 172 | 17.0 | 26.0 | 0.00 | 0.00 | 0.00 | 35 | 1008.8 |
| 20260901213136 | 91 | 183 | 17.0 | 26.0 | 0.00 | 0.00 | 0.00 | 33 | 1009.0 |
| 20260901211559 | 90 | 150 | 16.0 | 25.0 | 0.00 | 0.00 | 0.00 | 33 | 1009.0 |
| 20260901210057 | 90 | 187 | 16.0 | 25.0 | 0.00 | 0.00 | 0.00 | 35 | 1009.2 |
| 20260901204557 | 90 | 141 | 14.0 | 25.0 | 0.00 | 0.00 | 0.00 | 31 | 1009.3 |
| 20260901203117 | 90 | 184 | 17.0 | 28.0 | 0.00 | 0.00 | 0.00 | 31 | 1009.5 |
| 20260901201558 | 90 | 174 | 17.0 | 24.0 | 0.00 | 0.00 | 0.00 | 31 | 1009.8 |
| 20260901200054 | 90 | 201 | 14.0 | 27.0 | 0.00 | 0.00 | 0.00 | 32 | 1009.6 |
| 20260901194552 | 89 | 208 | 17.0 | 24.0 | 0.00 | 0.00 | 0.00 | 30 | 1009.7 |
| 20260901193050 | 88 | 188 | 13.0 | 21.0 | 0.00 | 0.00 | 0.00 | 37 | 1009.9 |
| 20260901191647 | 86 | 116 | 7.0 | 18.0 | 0.00 | 0.00 | 0.00 | 47 | 1010.1 |
| 20260901190045 | 85 | 151 | 6.0 | 15.0 | 0.00 | 0.00 | 0.00 | 46 | 1010.3 |
| 20260901184542 | 85 | 150 | 5.0 | 11.0 | 0.00 | 0.00 | 0.00 | 47 | 1010.3 |
| 20260901183049 | 85 | 144 | 7.0 | 16.0 | 0.00 | 0.00 | 0.00 | 49 | 1010.4 |
| 20260901181540 | 84 | 301 | 3.0 | 15.0 | 0.00 | 0.00 | 0.00 | 49 | 1010.6 |
| 20260901180040 | 84 | 264 | 3.0 | 14.0 | 0.00 | 0.00 | 0.00 | 50 | 1010.7 |
| 20260901174539 | 84 | 206 | 9.0 | 14.0 | 0.00 | 0.00 | 0.00 | 49 | 1010.8 |
| 20260901173045 | 84 | 136 | 5.0 | 15.0 | 0.00 | 0.00 | 0.00 | 50 | 1010.8 |
| 20260901171542 | 83 | 150 | 3.0 | 14.0 | 0.00 | 0.00 | 0.00 | 51 | 1010.8 |
| 20260901170032 | 83 | 124 | 7.0 | 14.0 | 0.00 | 0.00 | 0.00 | 52 | 1010.8 |
| 20260901164530 | 82 | 127 | 6.0 | 17.0 | 0.00 | 0.00 | 0.00 | 52 | 1010.8 |
| 20260901163036 | 82 | 144 | 9.0 | 16.0 | 0.00 | 0.00 | 0.00 | 53 | 1010.7 |
| 20260901161526 | 81 | 115 | 7.0 | 17.0 | 0.00 | 0.00 | 0.00 | 54 | 1010.6 |
| 20260901160023 | 80 | 107 | 9.0 | 13.0 | 0.00 | 0.00 | 0.00 | 54 | 1010.6 |
| 20260901154527 | 80 | 136 | 8.0 | 14.0 | 0.00 | 0.00 | 0.00 | 54 | 1010.5 |
| 20260901153031 | 80 | 105 | 8.0 | 15.0 | 0.00 | 0.00 | 0.00 | 54 | 1010.4 |
| 20260901151521 | 80 | 111 | 5.0 | 11.0 | 0.00 | 0.00 | 0.00 | 54 | 1010.5 |
| 20260901150017 | 79 | 98 | 5.0 | 13.0 | 0.00 | 0.00 | 0.00 | 55 | 1010.5 |
| 20260901144523 | 79 | 116 | 5.0 | 13.0 | 0.00 | 0.00 | 0.00 | 54 | 1010.5 |
| 20260901143014 | 78 | 129 | 3.0 | 11.0 | 0.00 | 0.00 | 0.00 | 55 | 1010.7 |
| 20260901141513 | 78 | 122 | 5.0 | 8.0 | 0.00 | 0.00 | 0.00 | 56 | 1010.6 |
| 20260901140011 | 0 | 0.0 | 0.0 | 0.00 | 0.00 | 0.00 | 1010.5 | ||
| 20260901134507 | 0 | 0.0 | 0.0 | 0.00 | 0.00 | 0.00 | 1010.5 | ||
| 20260901133004 | 0 | 0.0 | 0.0 | 0.00 | 0.00 | 0.00 | 1010.2 | ||
| 20260901131558 | 0 | 0.0 | 0.0 | 0.00 | 0.00 | 0.00 | 1010.0 | ||
| 20260901130056 | 75 | 102 | 2.0 | 6.0 | 0.00 | 0.00 | 0.00 | 60 | 1009.8 |
| 20260901124553 | 75 | 96 | 3.0 | 7.0 | 0.00 | 0.00 | 0.00 | 60 | 1009.7 |
| 20260901123051 | 75 | 100 | 1.0 | 5.0 | 0.00 | 0.00 | 0.00 | 60 | 1009.6 |
| 20260901121550 | 75 | 105 | 3.0 | 7.0 | 0.00 | 0.00 | 0.00 | 60 | 1009.7 |
| 20260901120051 | 76 | 104 | 5.0 | 11.0 | 0.00 | 0.00 | 0.00 | 60 | 1009.7 |
| 20260901114548 | 76 | 100 | 3.0 | 12.0 | 0.00 | 0.00 | 0.00 | 61 | 1009.7 |
| 20260901113047 | 76 | 110 | 7.0 | 12.0 | 0.00 | 0.00 | 0.00 | 61 | 1009.7 |
| 20260901111546 | 76 | 120 | 5.0 | 12.0 | 0.00 | 0.00 | 0.00 | 61 | 1009.6 |
| 20260901110046 | 76 | 104 | 6.0 | 12.0 | 0.00 | 0.00 | 0.00 | 59 | 1009.7 |
| 20260901104546 | 76 | 117 | 7.0 | 16.0 | 0.00 | 0.00 | 0.00 | 60 | 1009.6 |
| 20260901103048 | 76 | 127 | 9.0 | 14.0 | 0.00 | 0.00 | 0.00 | 59 | 1009.6 |
| 20260901101603 | 76 | 118 | 8.0 | 18.0 | 0.00 | 0.00 | 0.00 | 59 | 1009.6 |
| 20260901100045 | 76 | 97 | 6.0 | 16.0 | 0.00 | 0.00 | 0.00 | 58 | 1009.6 |
| 20260901094543 | 76 | 113 | 7.0 | 12.0 | 0.00 | 0.00 | 0.00 | 59 | 1009.7 |
| 20260901093042 | 76 | 105 | 7.0 | 16.0 | 0.00 | 0.00 | 0.00 | 59 | 1009.7 |
| 20260901091541 | 76 | 127 | 7.0 | 15.0 | 0.00 | 0.00 | 0.00 | 60 | 1009.7 |
| 20260901090040 | 76 | 104 | 9.0 | 15.0 | 0.00 | 0.00 | 0.00 | 58 | 1009.7 |
| 20260901084539 | 77 | 122 | 10.0 | 17.0 | 0.00 | 0.00 | 0.00 | 57 | 1009.7 |
| 20260901083035 | 77 | 117 | 7.0 | 13.0 | 0.00 | 0.00 | 0.00 | 55 | 1009.6 |
| 20260901081534 | 78 | 104 | 5.0 | 11.0 | 0.00 | 0.00 | 0.00 | 53 | 1009.6 |
| 20260901080036 | 78 | 114 | 6.0 | 13.0 | 0.00 | 0.00 | 0.00 | 51 | 1009.4 |
| 20260901074542 | 78 | 113 | 6.0 | 12.0 | 0.00 | 0.00 | 0.00 | 50 | 1009.4 |
| 20260901073038 | 77 | 101 | 5.0 | 11.0 | 0.00 | 0.00 | 0.00 | 49 | 1009.4 |
| 20260901071529 | 77 | 105 | 4.0 | 9.0 | 0.00 | 0.00 | 0.00 | 50 | 1009.2 |
| 20260901070030 | 77 | 109 | 4.0 | 9.0 | 0.00 | 0.00 | 0.00 | 51 | 1009.0 |
| 20260901064530 | 78 | 108 | 7.0 | 10.0 | 0.00 | 0.00 | 0.00 | 51 | 1008.8 |
| 20260901063023 | 78 | 102 | 7.0 | 12.0 | 0.00 | 0.00 | 0.00 | 51 | 1009.0 |
| 20260901061521 | 78 | 106 | 8.0 | 14.0 | 0.00 | 0.00 | 0.00 | 51 | 1008.9 |
| 20260901060019 | 78 | 153 | 7.0 | 14.0 | 0.00 | 0.00 | 0.00 | 51 | 1008.9 |
| 20260901054516 | 79 | 105 | 7.0 | 13.0 | 0.00 | 0.00 | 0.00 | 51 | 1008.8 |
| 20260901053014 | 78 | 111 | 6.0 | 13.0 | 0.00 | 0.00 | 0.00 | 50 | 1008.8 |
| 20260901051529 | 79 | 98 | 7.0 | 12.0 | 0.00 | 0.00 | 0.00 | 49 | 1008.7 |
| 20260901050013 | 79 | 118 | 5.0 | 13.0 | 0.00 | 0.00 | 0.00 | 50 | 1008.7 |
| 20260901044510 | 78 | 118 | 5.0 | 12.0 | 0.00 | 0.00 | 0.00 | 54 | 1008.6 |